UAL548 KLAS-KSFO

Flight info

Callsign UAL548
Flight time 1h 9m
Altitude 38000
Route JOHKR5 KENNO RUSME DYAMD5
Aircraft A21N/M-SDE3FGHIRWY/LB1

Departure

Time 2026-05-04 05:28
Airport Harry Reid International Airport (KLAS)

Arrival

Time 2026-05-04 06:38
Airport San Francisco International Airport (KSFO)
Time Latitude Longitude Altitude Speed Heading
2026-05-04 04:47 36.08347 -115.13874 2195 ft 0 kts 224°
2026-05-04 05:09 36.08356 -115.13863 2194 ft 2 kts 224°
2026-05-04 05:09 36.08368 -115.13851 2194 ft 2 kts 206°
2026-05-04 05:10 36.08379 -115.13846 2194 ft 2 kts 194°
2026-05-04 05:10 36.08392 -115.13844 2194 ft 2 kts 182°
2026-05-04 05:10 36.08404 -115.13843 2194 ft 1 kts 188°
2026-05-04 05:10 36.08411 -115.13837 2194 ft 1 kts 241°
2026-05-04 05:11 36.08414 -115.13830 2194 ft 0 kts 270°
2026-05-04 05:11 36.08413 -115.13824 2194 ft 1 kts 276°
2026-05-04 05:11 36.08413 -115.13820 2194 ft 0 kts 273°
2026-05-04 05:12 36.08413 -115.13821 2194 ft 0 kts 273°
2026-05-04 05:12 36.08413 -115.13810 2194 ft 1 kts 272°
2026-05-04 05:12 36.08413 -115.13808 2194 ft 0 kts 272°
2026-05-04 05:15 36.08413 -115.13811 2194 ft 0 kts 272°
2026-05-04 05:16 36.08413 -115.13819 2194 ft 1 kts 272°
2026-05-04 05:16 36.08413 -115.13834 2194 ft 2 kts 272°
2026-05-04 05:16 36.08414 -115.13862 2194 ft 5 kts 272°
2026-05-04 05:16 36.08415 -115.13918 2194 ft 9 kts 271°
2026-05-04 05:17 36.08405 -115.14005 2194 ft 15 kts 238°
2026-05-04 05:17 36.08323 -115.14112 2195 ft 23 kts 227°
2026-05-04 05:17 36.08179 -115.14159 2195 ft 14 kts 180°
2026-05-04 05:17 36.08085 -115.14160 2195 ft 14 kts 181°
2026-05-04 05:18 36.07991 -115.14157 2195 ft 14 kts 166°
2026-05-04 05:18 36.07916 -115.14083 2195 ft 14 kts 135°
2026-05-04 05:18 36.07842 -115.13987 2195 ft 14 kts 124°
2026-05-04 05:18 36.07829 -115.13857 2195 ft 16 kts 92°
2026-05-04 05:19 36.07761 -115.13750 2195 ft 16 kts 106°
2026-05-04 05:19 36.07756 -115.13582 2195 ft 18 kts 90°
2026-05-04 05:19 36.07758 -115.13388 2195 ft 21 kts 89°
2026-05-04 05:20 36.07757 -115.12941 2195 ft 19 kts 91°
2026-05-04 05:20 36.07758 -115.12752 2195 ft 18 kts 90°
2026-05-04 05:20 36.07756 -115.12563 2195 ft 18 kts 91°
2026-05-04 05:20 36.07755 -115.12377 2195 ft 17 kts 89°
2026-05-04 05:21 36.07755 -115.12261 2195 ft 0 kts 90°
2026-05-04 05:22 36.07755 -115.12241 2195 ft 0 kts 90°
2026-05-04 05:24 36.07756 -115.12202 2195 ft 8 kts 89°
2026-05-04 05:24 36.07745 -115.12149 2195 ft 0 kts 135°
2026-05-04 05:25 36.07744 -115.12148 2195 ft 0 kts 136°
2026-05-04 05:25 36.07733 -115.12139 2195 ft 3 kts 150°
2026-05-04 05:25 36.07703 -115.12129 2195 ft 6 kts 172°
2026-05-04 05:26 36.07648 -115.12148 2195 ft 8 kts 233°
2026-05-04 05:26 36.07641 -115.12219 2195 ft 5 kts 268°
2026-05-04 05:26 36.07640 -115.12261 2195 ft 5 kts 270°
2026-05-04 05:26 36.07640 -115.12338 2195 ft 27 kts 270°
2026-05-04 05:27 36.07621 -115.12866 2195 ft 96 kts 266°
2026-05-04 05:28 36.07391 -115.22955 4889 ft 201 kts 256°
2026-05-04 05:29 36.07030 -115.24693 5163 ft 214 kts 244°
2026-05-04 05:29 36.06105 -115.26150 5386 ft 229 kts 217°
2026-05-04 05:29 36.04597 -115.27026 5669 ft 246 kts 199°
2026-05-04 05:29 36.02949 -115.27736 6202 ft 253 kts 200°
2026-05-04 05:31 35.91159 -115.34683 10882 ft 286 kts 207°
2026-05-04 05:31 35.89587 -115.36239 11084 ft 298 kts 228°
2026-05-04 05:32 35.88652 -115.38560 11090 ft 308 kts 252°
2026-05-04 05:32 35.88498 -115.41194 11115 ft 315 kts 268°
2026-05-04 05:32 35.88587 -115.43909 11131 ft 313 kts 268°
2026-05-04 05:33 35.88736 -115.49275 11143 ft 314 kts 268°
2026-05-04 05:33 35.88795 -115.51980 11126 ft 314 kts 267°
2026-05-04 05:33 35.88849 -115.54680 11114 ft 315 kts 268°
2026-05-04 05:33 35.88902 -115.57372 11130 ft 318 kts 267°
2026-05-04 05:34 35.88954 -115.60115 11585 ft 324 kts 268°
2026-05-04 05:34 35.89008 -115.62848 12437 ft 322 kts 268°
2026-05-04 05:34 35.89061 -115.65608 13221 ft 322 kts 266°
2026-05-04 05:34 35.89112 -115.68357 13915 ft 324 kts 267°
2026-05-04 05:35 35.89162 -115.71126 14606 ft 325 kts 267°
2026-05-04 05:35 35.89208 -115.73888 15283 ft 326 kts 267°
2026-05-04 05:35 35.89258 -115.76659 15992 ft 327 kts 267°
2026-05-04 05:35 35.89306 -115.79469 16648 ft 328 kts 268°
2026-05-04 05:36 35.89353 -115.82279 17268 ft 330 kts 268°
2026-05-04 05:36 35.89401 -115.85104 17903 ft 331 kts 268°
2026-05-04 05:36 35.89450 -115.87940 18508 ft 332 kts 268°
2026-05-04 05:36 35.89515 -115.90765 19136 ft 332 kts 271°
2026-05-04 05:37 35.90056 -115.93516 19759 ft 339 kts 288°
2026-05-04 05:37 35.91334 -115.96017 20427 ft 349 kts 304°
2026-05-04 05:37 35.93023 -115.98159 21051 ft 350 kts 307°
2026-05-04 05:38 35.96450 -116.02335 22171 ft 350 kts 306°
2026-05-04 05:38 35.98175 -116.04446 22705 ft 350 kts 305°
2026-05-04 05:38 35.99902 -116.06572 23268 ft 349 kts 304°
2026-05-04 05:38 36.01604 -116.08679 23738 ft 351 kts 305°
2026-05-04 05:39 36.03330 -116.10826 24172 ft 354 kts 304°
2026-05-04 05:39 36.06810 -116.15135 25149 ft 356 kts 304°
2026-05-04 05:39 36.08561 -116.17304 25608 ft 357 kts 304°
2026-05-04 05:40 36.12086 -116.21680 26360 ft 362 kts 305°
2026-05-04 05:40 36.13873 -116.23898 26685 ft 366 kts 304°
2026-05-04 05:40 36.15647 -116.26102 27059 ft 368 kts 304°
2026-05-04 05:41 36.17474 -116.28370 27415 ft 370 kts 304°
2026-05-04 05:41 36.19281 -116.30621 27753 ft 373 kts 304°
2026-05-04 05:41 36.21122 -116.32916 28110 ft 374 kts 304°
2026-05-04 05:41 36.22931 -116.35169 28517 ft 375 kts 304°
2026-05-04 05:42 36.24765 -116.37455 28880 ft 376 kts 304°
2026-05-04 05:42 36.26620 -116.39770 29242 ft 377 kts 304°
2026-05-04 05:42 36.28464 -116.42069 29606 ft 378 kts 304°
2026-05-04 05:42 36.30377 -116.44363 29890 ft 381 kts 306°
2026-05-04 05:43 36.32274 -116.46602 30238 ft 381 kts 305°
2026-05-04 05:43 36.34222 -116.48902 30461 ft 384 kts 304°
2026-05-04 05:43 36.36137 -116.51174 30710 ft 386 kts 304°
2026-05-04 05:45 36.49738 -116.67110 32843 ft 388 kts 304°
2026-05-04 05:45 36.51741 -116.69376 33106 ft 389 kts 304°
2026-05-04 05:47 36.65572 -116.85143 35819 ft 383 kts 303°
2026-05-04 05:47 36.67524 -116.87366 36333 ft 379 kts 303°
2026-05-04 05:47 36.69481 -116.89555 36709 ft 380 kts 304°
2026-05-04 05:48 36.71531 -116.91667 36837 ft 387 kts 307°
2026-05-04 05:48 36.73702 -116.93702 36973 ft 395 kts 310°
2026-05-04 05:48 36.75975 -116.95610 37207 ft 401 kts 313°
2026-05-04 05:48 36.78395 -116.97419 37444 ft 407 kts 315°
2026-05-04 05:49 36.80909 -116.99110 37611 ft 412 kts 317°
2026-05-04 05:49 36.83464 -117.00777 37730 ft 415 kts 318°
2026-05-04 05:49 36.88608 -117.04110 37930 ft 420 kts 318°
2026-05-04 05:51 37.09488 -117.17696 37971 ft 427 kts 320°
2026-05-04 05:52 37.14766 -117.21140 37959 ft 425 kts 320°
2026-05-04 05:52 37.20031 -117.24591 37976 ft 428 kts 320°
2026-05-04 05:54 37.39189 -117.41007 37964 ft 413 kts 308°
2026-05-04 05:55 37.43493 -117.45785 37967 ft 407 kts 304°
2026-05-04 05:55 37.46867 -117.51244 37964 ft 390 kts 292°
2026-05-04 05:56 37.49153 -117.57353 37972 ft 381 kts 281°
2026-05-04 05:56 37.50337 -117.63774 37971 ft 375 kts 271°
2026-05-04 05:57 37.50907 -117.70242 37966 ft 375 kts 271°
2026-05-04 05:57 37.51451 -117.76759 37966 ft 376 kts 271°
2026-05-04 05:58 37.51986 -117.83304 37973 ft 377 kts 270°
2026-05-04 05:58 37.52519 -117.89861 37980 ft 378 kts 271°
2026-05-04 05:59 37.53050 -117.96474 37980 ft 380 kts 270°
2026-05-04 05:59 37.53574 -118.03088 37982 ft 381 kts 271°
2026-05-04 06:00 37.54095 -118.09701 37997 ft 382 kts 271°
2026-05-04 06:00 37.54618 -118.16337 38015 ft 384 kts 271°
2026-05-04 06:01 37.55140 -118.23093 38022 ft 392 kts 271°
2026-05-04 06:03 37.57254 -118.50762 38000 ft 398 kts 271°
2026-05-04 06:05 37.59557 -118.82079 38041 ft 401 kts 270°
2026-05-04 06:06 37.60059 -118.89080 38040 ft 401 kts 271°
2026-05-04 06:06 37.60561 -118.96053 38042 ft 401 kts 270°
2026-05-04 06:07 37.61056 -119.03074 38045 ft 403 kts 270°
2026-05-04 06:07 37.61552 -119.10131 38040 ft 404 kts 271°
2026-05-04 06:08 37.62045 -119.17141 38042 ft 405 kts 270°
2026-05-04 06:08 37.62532 -119.24226 38042 ft 404 kts 270°
2026-05-04 06:09 37.63016 -119.31285 38043 ft 406 kts 270°
2026-05-04 06:11 37.64914 -119.59695 38009 ft 408 kts 270°
2026-05-04 06:13 37.66681 -119.87105 35177 ft 388 kts 270°
2026-05-04 06:14 37.67948 -120.07411 31770 ft 384 kts 269°
2026-05-04 06:14 37.68151 -120.10745 31288 ft 384 kts 269°
2026-05-04 06:15 37.68357 -120.14089 30806 ft 383 kts 269°
2026-05-04 06:15 37.68559 -120.17444 30341 ft 383 kts 269°
2026-05-04 06:15 37.68761 -120.20820 29838 ft 385 kts 269°
2026-05-04 06:15 37.68961 -120.24155 29324 ft 386 kts 269°
2026-05-04 06:16 37.69161 -120.27531 28809 ft 387 kts 270°
2026-05-04 06:16 37.69363 -120.30920 28316 ft 387 kts 270°
2026-05-04 06:16 37.69560 -120.34286 27872 ft 388 kts 270°
2026-05-04 06:16 37.69723 -120.37682 27346 ft 388 kts 268°
2026-05-04 06:17 37.69702 -120.41056 26886 ft 385 kts 263°
2026-05-04 06:17 37.69470 -120.44430 26395 ft 384 kts 259°
2026-05-04 06:17 37.69098 -120.47749 25931 ft 384 kts 258°
2026-05-04 06:17 37.68707 -120.51051 25485 ft 384 kts 258°
2026-05-04 06:18 37.68308 -120.54395 25013 ft 384 kts 258°
2026-05-04 06:18 37.67915 -120.57703 24554 ft 385 kts 259°
2026-05-04 06:18 37.67520 -120.61059 24084 ft 386 kts 259°
2026-05-04 06:20 37.64757 -120.84352 20937 ft 379 kts 259°
2026-05-04 06:20 37.64362 -120.87616 20505 ft 376 kts 259°
2026-05-04 06:21 37.62767 -121.00462 18829 ft 366 kts 258°
2026-05-04 06:21 37.62342 -121.03622 18406 ft 364 kts 258°
2026-05-04 06:22 37.61923 -121.06734 18011 ft 361 kts 258°
2026-05-04 06:22 37.61502 -121.09858 17581 ft 359 kts 258°
2026-05-04 06:25 37.56710 -121.48646 12198 ft 332 kts 260°
2026-05-04 06:25 37.56375 -121.51517 11787 ft 330 kts 260°
2026-05-04 06:26 37.56043 -121.54355 11384 ft 329 kts 260°
2026-05-04 06:26 37.55708 -121.57212 10975 ft 327 kts 260°
2026-05-04 06:26 37.55379 -121.60026 10671 ft 321 kts 260°
2026-05-04 06:26 37.54993 -121.62716 10538 ft 307 kts 256°
2026-05-04 06:27 37.52629 -121.72809 9102 ft 295 kts 251°
2026-05-04 06:28 37.52040 -121.75253 8789 ft 291 kts 251°
2026-05-04 06:28 37.51469 -121.77640 8613 ft 281 kts 251°
2026-05-04 06:28 37.50924 -121.79923 8494 ft 270 kts 251°
2026-05-04 06:28 37.50383 -121.82175 8175 ft 270 kts 251°
2026-05-04 06:29 37.49841 -121.84428 7852 ft 269 kts 251°
2026-05-04 06:29 37.49297 -121.86693 7343 ft 277 kts 250°
2026-05-04 06:29 37.48712 -121.89043 6548 ft 292 kts 249°
2026-05-04 06:29 37.48065 -121.91475 6086 ft 292 kts 249°
2026-05-04 06:30 37.47429 -121.93849 5945 ft 280 kts 249°
2026-05-04 06:30 37.46828 -121.96107 5937 ft 263 kts 249°
2026-05-04 06:30 37.46270 -121.98220 5931 ft 247 kts 251°
2026-05-04 06:30 37.46099 -122.00365 5889 ft 249 kts 280°
2026-05-04 06:31 37.46747 -122.02385 5520 ft 252 kts 298°
2026-05-04 06:31 37.47648 -122.04262 5177 ft 251 kts 301°
2026-05-04 06:31 37.48556 -122.06132 4864 ft 249 kts 299°
2026-05-04 06:31 37.49429 -122.08000 4535 ft 243 kts 299°
2026-05-04 06:32 37.50261 -122.09804 4233 ft 232 kts 298°
2026-05-04 06:33 37.55007 -122.21081 2558 ft 191 kts 295°
2026-05-04 06:34 37.55593 -122.22488 2285 ft 171 kts 296°
2026-05-04 06:34 37.56125 -122.23763 2001 ft 155 kts 296°
2026-05-04 06:34 37.56598 -122.24895 1788 ft 138 kts 295°
2026-05-04 06:34 37.57030 -122.25930 1762 ft 133 kts 294°
2026-05-04 06:35 37.57466 -122.26979 1758 ft 133 kts 294°
2026-05-04 06:36 37.60449 -122.34175 378 ft 129 kts 297°
2026-05-04 06:37 37.60872 -122.35159 192 ft 127 kts 298°
2026-05-04 06:37 37.61304 -122.36161 53 ft 136 kts 298°
2026-05-04 06:37 37.61738 -122.37190 16 ft 121 kts 298°
2026-05-04 06:37 37.62027 -122.37875 29 ft 62 kts 297°
2026-05-04 06:38 37.62165 -122.38211 32 ft 24 kts 292°
2026-05-04 06:38 37.62125 -122.38336 32 ft 14 kts 244°
2026-05-04 06:40 37.61988 -122.38506 32 ft 4 kts 139°
2026-05-04 06:40 37.61974 -122.38491 32 ft 2 kts 141°
2026-05-04 06:40 37.61968 -122.38486 32 ft 0 kts 140°
2026-05-04 06:40 37.61967 -122.38484 32 ft 0 kts 140°
2026-05-04 06:41 37.61966 -122.38483 32 ft 0 kts 139°